Location: Mactaquac Provincial Park
(45.9573°N, 66.8897°W)
Time: 19:49:45
(UTC-03:00)

CENTAUR R/B - Visible Passes

Search period start: 20 October 2014 00:00
Search period end: 30 October 2014 00:00
Orbit: 894 x 1296 km, 63.5° (Epoch: 14 October)

Date Brightness Start Highest point End Pass type
(mag) Time Alt. Az. Time Alt. Az. Time Alt. Az.
20 Oct 4.5 03:13:25 28° NNE 03:13:28 28° NNE 03:19:57 10° E visible
20 Oct 3.1 05:00:41 25° NNW 05:05:29 71° NE 05:13:30 10° SE visible
20 Oct 3.7 06:49:13 10° NW 06:55:51 33° WSW 07:02:45 10° S visible
20 Oct 2.6 20:41:27 10° SSW 20:47:27 53° ESE 20:48:01 51° E visible
20 Oct 4.2 22:32:18 10° WSW 22:35:18 27° W 22:35:18 27° W visible
21 Oct 5.1 02:27:54 17° NE 02:27:54 17° NE 02:30:27 10° ENE visible
21 Oct 3.6 04:15:11 42° N 04:17:07 51° NE 04:24:50 10° ESE visible
21 Oct 3.2 06:02:28 18° NW 06:07:59 50° WSW 06:15:39 10° S visible
21 Oct 3.2 19:54:17 10° S 19:59:40 32° ESE 20:02:37 22° ENE visible
21 Oct 3.0 21:43:40 10° SW 21:49:53 59° NW 21:49:53 59° NW visible
21 Oct 5.2 23:36:56 10° WNW 23:37:09 11° WNW 23:37:09 11° WNW visible
22 Oct 4.2 03:29:54 35° NE 03:29:54 35° NE 03:35:49 10° E visible
22 Oct 2.9 05:17:11 44° NW 05:19:57 75° SW 05:27:58 10° SSE visible
22 Oct 4.3 07:04:52 10° WNW 07:09:41 18° WSW 07:14:38 10° SW visible
22 Oct 3.8 19:07:56 10° SSE 19:12:04 19° ESE 19:16:25 10° ENE visible
22 Oct 2.5 20:55:24 10° SW 21:01:41 88° NW 21:04:16 41° NE visible
22 Oct 4.4 22:47:44 10° W 22:51:31 26° NW 22:51:31 26° NW visible
23 Oct 5.1 02:44:47 16° ENE 02:44:47 16° ENE 02:46:31 10° E visible
23 Oct 3.0 04:32:06 76° ENE 04:32:06 76° ENE 04:39:49 10° SE visible
23 Oct 3.7 06:19:24 24° W 06:22:01 29° WSW 06:28:38 10° SSW visible
23 Oct 2.6 20:07:34 10° SSW 20:13:39 60° ESE 20:18:26 20° NE visible
23 Oct 3.8 21:58:44 10° WSW 22:04:42 38° NW 22:05:40 36° NNW visible
23 Oct 5.3 23:52:41 10° NW 23:52:55 11° NW 23:52:55 11° NW visible
24 Oct 4.3 03:47:07 32° ESE 03:47:07 32° ESE 03:51:15 10° ESE visible
24 Oct 3.2 05:34:26 45° WSW 05:34:26 45° WSW 05:41:42 10° S visible
24 Oct 3.1 19:20:14 10° S 19:25:49 36° ESE 19:31:53 10° NE visible
24 Oct 3.2 21:10:01 10° WSW 21:16:14 54° NW 21:19:39 29° NNE visible
24 Oct 4.7 23:03:28 10° WNW 23:06:53 21° NW 23:06:53 21° NW visible
25 Oct 5.4 03:02:13 10° ESE 03:02:13 10° ESE 03:02:19 10° ESE visible
25 Oct 3.8 04:49:32 38° SSE 04:49:32 38° SSE 04:54:10 10° SSE visible
25 Oct 4.4 06:36:51 15° WSW 06:36:51 15° WSW 06:40:07 10° SW visible
25 Oct 2.6 20:21:39 10° SW 20:27:57 80° NW 20:33:29 17° NE visible
25 Oct 4.3 22:14:14 10° W 22:19:46 27° NNW 22:20:42 27° NNW visible
26 Oct 4.9 04:04:37 17° SE 04:04:37 17° SE 04:06:07 10° SE visible
26 Oct 4.4 05:51:56 18° SSW 05:51:56 18° SSW 05:54:28 10° SSW visible
26 Oct 2.6 19:33:42 10° SSW 19:39:52 67° ESE 19:46:41 10° NE visible
26 Oct 3.9 21:25:11 10° W 21:31:04 36° NNW 21:34:24 24° NNE visible
26 Oct 5.0 23:19:11 10° NW 23:21:36 17° NNW 23:21:36 17° NNW visible
27 Oct 4.9 05:06:57 13° S 05:06:57 13° S 05:07:44 10° S visible
27 Oct 3.0 18:46:14 10° S 18:51:59 41° ESE 18:58:16 10° NE visible
27 Oct 3.4 20:36:23 10° WSW 20:42:33 49° NW 20:48:00 16° NNE visible
27 Oct 4.6 22:29:59 10° WNW 22:35:04 22° NNW 22:35:12 22° NNW visible
28 Oct 2.8 19:47:56 10° SW 19:54:13 73° NW 20:01:13 10° NE visible
28 Oct 4.4 21:40:45 10° WNW 21:46:11 26° NNW 21:48:44 21° N visible
28 Oct 5.2 23:34:37 10° NW 23:35:55 14° NNW 23:35:55 14° NNW visible
29 Oct 2.6 18:59:52 10° SSW 19:06:05 75° SE 19:12:59 10° NE visible
29 Oct 4.0 20:51:38 10° W 20:57:27 33° NNW 21:02:12 16° NNE visible
29 Oct 4.8 22:45:41 10° NW 22:49:24 19° NNW 22:49:24 19° NNW visible
